GW5915 Weather Reports


time (UTC)temp
C
wind
direction
speed
KPH
gust
KPH
rain 1hr
cm
rain 24hr
cm
rain mn
cm
humidity
%
barometer
mb
20260904155416 25 114 17.7 20.9 1.07 1.07 1.07 95 1016.4
20260904154915 26 157 14.5 17.7 0.46 0.46 0.46 92 1015.7
20260904154415 28 186 6.4 8.0 0.00 0.00 0.00 84 1015.7
20260904153910 28 151 12.9 12.9 0.00 0.00 0.00 85 1015.7
20260904153405 29 90 6.4 8.0 0.00 0.00 0.00 81 1015.7
20260904152902 30 192 3.2 3.2 0.00 0.00 0.00 83 1015.3
20260904152401 30 170 4.8 6.4 0.00 0.00 0.00 82 1015.3
20260904151902 31 114 0.0 0.0 0.00 0.00 0.00 79 1015.7
20260904151401 31 94 4.8 4.8 0.00 0.00 0.00 78 1015.7
20260904150857 30 106 3.2 3.2 0.00 0.00 0.00 74 1015.7
20260904150352 30 190 4.8 4.8 0.00 0.00 0.00 78 1015.7
20260904145850 30 240 8.0 8.0 0.00 0.00 0.00 77 1015.3
20260904145346 30 209 6.4 6.4 0.00 0.00 0.00 77 1015.3
20260904144842 30 258 8.0 8.0 0.00 0.00 0.00 78 1015.3
20260904144337 30 204 4.8 4.8 0.00 0.00 0.00 78 1015.0
20260904143833 30 258 3.2 3.2 0.00 0.00 0.00 78 1015.3
20260904143330 30 222 6.4 6.4 0.00 0.00 0.00 79 1015.3
20260904142825 30 222 9.7 11.3 0.00 0.00 0.00 80 1015.0
20260904142321 30 228 14.5 16.1 0.00 0.00 0.00 80 1015.0
20260904141815 30 210 4.8 4.8 0.00 0.00 0.00 84 1015.0
20260904141310 30 213 9.7 9.7 0.00 0.00 0.00 84 1015.0
20260904140807 30 224 8.0 9.7 0.00 0.00 0.00 81 1015.0
20260904140302 30 222 4.8 6.4 0.00 0.00 0.00 83 1015.0
20260904135801 30 216 4.8 4.8 0.00 0.00 0.00 84 1015.0
20260904135256 30 166 11.3 11.3 0.00 0.00 0.00 82 1015.0
20260904134752 30 241 9.7 9.7 0.00 0.00 0.00 84 1015.0
20260904134251 30 228 4.8 6.4 0.00 0.00 0.00 84 1015.0
20260904133746 30 200 9.7 11.3 0.00 0.00 0.00 83 1015.0
20260904133242 30 198 4.8 6.4 0.00 0.00 0.00 83 1015.0
20260904132741 30 230 6.4 6.4 0.00 0.00 0.00 85 1015.0
20260904132237 29 204 6.4 6.4 0.00 0.00 0.00 86 1014.7
20260904131736 29 228 6.4 6.4 0.00 0.00 0.00 87 1014.7
20260904131232 29 228 6.4 6.4 0.00 0.00 0.00 87 1014.7
20260904130732 28 229 3.2 3.2 0.00 0.00 0.00 88 1014.7
20260904130231 28 224 8.0 8.0 0.00 0.00 0.00 88 1014.3
20260904125728 28 223 0.0 0.0 0.00 0.00 0.00 90 1014.7
20260904125223 28 216 6.4 6.4 0.00 0.00 0.00 90 1014.3
20260904124723 28 230 6.4 6.4 0.00 0.00 0.00 91 1014.3
20260904124219 27 228 4.8 6.4 0.00 0.00 0.00 91 1014.7
20260904123714 27 223 3.2 3.2 0.00 0.00 0.00 92 1014.7
20260904123210 27 240 3.2 3.2 0.00 0.00 0.00 93 1014.7
20260904122709 27 222 0.0 0.0 0.00 0.00 0.00 94 1014.3
20260904122204 27 222 0.0 0.0 0.00 0.00 0.00 95 1014.3
20260904121659 26 218 3.2 3.2 0.00 0.00 0.00 95 1014.0
20260904121155 26 222 0.0 0.0 0.00 0.00 0.00 96 1014.0
20260904120651 26 222 0.0 0.0 0.00 0.00 0.00 97 1014.0
20260904120147 26 188 0.0 0.0 0.00 0.00 0.00 97 1014.0
20260904115642 26 188 0.0 0.0 0.00 0.00 0.00 98 1014.0
20260904115137 25 188 0.0 0.0 0.00 0.00 0.00 98 1014.3
20260904114632 25 188 0.0 0.0 0.00 0.00 0.00 98 1014.3
20260904114132 25 186 0.0 0.0 0.00 0.00 0.00 98 1014.0
20260904113631 25 186 0.0 0.0 0.00 0.00 0.00 98 1014.0
20260904113131 25 186 0.0 0.0 0.00 0.00 0.00 98 1014.0
20260904112626 25 186 0.0 0.0 0.00 0.00 0.00 98 1014.0
20260904112122 25 186 0.0 0.0 0.00 0.00 0.00 98 1014.0
20260904111617 25 186 0.0 0.0 0.00 0.00 0.00 98 1014.0
20260904111113 25 186 0.0 0.0 0.00 0.00 0.00 98 1014.0
20260904110609 25 186 0.0 0.0 0.00 0.00 0.00 98 1013.6
20260904110109 25 186 0.0 0.0 0.00 0.00 0.00 98 1013.6
20260904105608 25 186 0.0 0.0 0.00 0.00 0.00 98 1013.3
20260904105103 25 186 0.0 0.0 0.00 0.00 0.00 98 1013.3
20260904104559 25 186 0.0 0.0 0.00 0.00 0.00 98 1013.6
20260904104054 25 186 0.0 0.0 0.00 0.00 0.00 98 1013.3
20260904103549 25 186 0.0 0.0 0.00 0.00 0.00 98 1013.3
20260904103046 25 186 0.0 0.0 0.00 0.00 0.00 98 1013.3
20260904102541 25 186 0.0 0.0 0.00 0.00 0.00 98 1013.3
20260904102036 25 186 0.0 0.0 0.00 0.00 0.00 98 1013.3
20260904101533 25 186 0.0 0.0 0.00 0.00 0.00 98 1013.3
20260904101029 25 186 0.0 0.0 0.00 0.00 0.00 98 1013.0
20260904100524 25 186 0.0 0.0 0.00 0.00 0.00 98 1013.3
20260904100019 25 186 0.0 0.0 0.00 0.00 0.00 98 1013.0
20260904095514 25 186 0.0 0.0 0.00 0.00 0.00 98 1013.0
20260904095009 25 186 0.0 0.0 0.00 0.00 0.00 98 1013.0
20260904094504 25 186 0.0 0.0 0.00 0.00 0.00 98 1013.0
20260904093959 25 186 0.0 0.0 0.00 0.00 0.00 98 1013.0
20260904093456 25 186 0.0 0.0 0.00 0.00 0.00 98 1013.0
20260904092950 25 186 0.0 0.0 0.00 0.00 0.00 98 1013.0
20260904092447 25 186 0.0 0.0 0.00 0.00 0.00 98 1013.0
20260904091942 25 186 0.0 0.0 0.00 0.00 0.00 98 1013.0
20260904091438 25 186 0.0 0.0 0.00 0.00 0.00 98 1013.0
20260904090932 25 186 0.0 0.0 0.00 0.00 0.00 98 1012.3
20260904090428 25 186 0.0 0.0 0.00 0.00 0.00 98 1012.3
20260904085923 25 186 0.0 0.0 0.00 0.00 0.00 98 1012.6
20260904085419 25 186 0.0 0.0 0.00 0.00 0.00 98 1012.6
20260904084919 25 186 0.0 0.0 0.00 0.00 0.00 98 1012.6
20260904084415 25 186 0.0 0.0 0.00 0.00 0.00 98 1012.6
20260904083910 25 186 0.0 0.0 0.00 0.00 0.00 98 1013.0
20260904083407 25 186 0.0 0.0 0.00 0.00 0.00 98 1012.6
20260904082857 25 186 0.0 0.0 0.00 0.00 0.00 98 1012.6
20260904082357 25 186 0.0 0.0 0.00 0.00 0.00 97 1012.6
20260904081852 25 186 0.0 0.0 0.00 0.00 0.00 97 1012.6
20260904081353 25 186 0.0 0.0 0.00 0.00 0.00 97 1012.6
20260904080849 25 186 0.0 0.0 0.00 0.00 0.00 97 1012.6
20260904080344 25 186 0.0 0.0 0.00 0.00 0.00 97 1012.6
20260904075840 25 186 0.0 0.0 0.00 0.00 0.00 97 1012.6
20260904075335 25 186 0.0 0.0 0.00 0.00 0.00 97 1012.3
20260904074834 25 186 0.0 0.0 0.00 0.00 0.00 97 1012.3
20260904074329 25 186 0.0 0.0 0.00 0.00 0.00 97 1012.3
20260904073825 25 186 0.0 0.0 0.00 0.00 0.00 97 1012.6
20260904073320 25 186 0.0 0.0 0.00 0.00 0.00 97 1012.6
20260904072816 25 186 0.0 0.0 0.00 0.00 0.00 97 1012.6
20260904072315 25 186 0.0 0.0 0.00 0.00 0.00 97 1012.6
20260904071811 26 186 0.0 0.0 0.00 0.00 0.00 97 1012.3
20260904071307 26 186 0.0 0.0 0.00 0.00 0.00 97 1012.6
20260904070806 26 186 0.0 0.0 0.00 0.00 0.00 97 1012.6
20260904070305 26 186 0.0 0.0 0.00 0.00 0.00 97 1012.6
20260904065800 26 186 0.0 0.0 0.00 0.00 0.00 97 1012.6
20260904065257 26 186 0.0 0.0 0.00 0.00 0.00 97 1012.6
20260904064756 26 186 0.0 0.0 0.00 0.00 0.00 97 1012.6
20260904064252 26 186 0.0 0.0 0.00 0.00 0.00 97 1012.6
20260904063748 26 186 0.0 0.0 0.00 0.00 0.00 97 1013.0
20260904063244 26 174 0.0 0.0 0.00 0.00 0.00 97 1012.6
20260904062740 26 174 0.0 0.0 0.00 0.00 0.00 97 1013.0
20260904062236 26 174 0.0 0.0 0.00 0.00 0.00 97 1012.6
20260904061731 26 174 0.0 0.0 0.00 0.00 0.00 97 1013.0
20260904061227 26 174 0.0 0.0 0.00 0.00 0.00 97 1013.0
20260904060724 26 174 0.0 0.0 0.00 0.00 0.00 97 1013.3
20260904060219 26 174 0.0 0.0 0.00 0.00 0.00 97 1013.3
20260904055714 26 174 0.0 0.0 0.00 0.00 0.00 97 1013.3
20260904055215 26 174 0.0 0.0 0.00 0.00 0.00 96 1013.0
20260904054710 26 174 0.0 0.0 0.00 0.00 0.00 96 1013.3
20260904054207 26 174 0.0 0.0 0.00 0.00 0.00 96 1013.3
20260904053701 26 174 0.0 0.0 0.00 0.00 0.00 96 1013.3
20260904053155 26 174 0.0 0.0 0.00 0.00 0.00 96 1013.3
20260904052652 26 174 0.0 0.0 0.00 0.00 0.00 96 1013.6
20260904052148 26 174 0.0 0.0 0.00 0.00 0.00 96 1013.3
20260904051644 26 174 0.0 0.0 0.00 0.00 0.00 96 1013.3
20260904051145 26 174 0.0 0.0 0.00 0.00 0.00 96 1013.3
20260904050640 26 174 0.0 0.0 0.00 0.00 0.00 96 1013.0
20260904050136 26 174 0.0 0.0 0.00 0.00 0.00 96 1013.0
20260904045636 26 174 0.0 0.0 0.00 0.00 0.00 96 1013.3
20260904045136 26 180 0.0 0.0 0.00 0.00 0.00 96 1013.3
20260904044632 26 192 0.0 0.0 0.00 0.00 0.00 95 1013.0
20260904044128 26 198 0.0 0.0 0.00 0.00 0.00 95 1013.3
20260904043624 26 204 0.0 0.0 0.00 0.00 0.00 95 1013.3
20260904043120 26 186 0.0 0.0 0.00 0.00 0.00 95 1013.6
20260904042616 27 180 1.6 1.6 0.00 0.00 0.00 95 1013.3
20260904042111 27 162 3.2 3.2 0.00 0.00 0.00 95 1013.6
20260904041607 26 149 4.8 4.8 0.00 0.00 0.00 95 1013.6
20260904041103 26 162 0.0 0.0 0.00 0.00 0.00 95 1013.6
20260904040602 26 162 0.0 0.0 0.00 0.00 0.00 95 1013.6
20260904040059 26 162 0.0 0.0 0.00 0.00 0.00 94 1013.6
20260904035555 26 162 0.0 0.0 0.28 1.91 1.91 94 1014.0
20260904035054 26 96 0.0 0.0 0.28 1.91 1.91 93 1014.0
20260904034549 26 82 0.0 0.0 0.28 1.91 1.91 94 1014.0
20260904034044 26 82 0.0 0.0 0.28 1.91 1.91 94 1014.0
20260904033540 26 188 6.4 6.4 0.18 1.83 1.83 95 1014.0
20260904033037 26 192 11.3 12.9 0.00 1.63 1.63 94 1014.0
20260904032533 26 144 0.0 0.0 0.00 1.63 1.63 93 1013.6
20260904032031 26 120 0.0 0.0 0.00 1.63 1.63 92 1013.6
20260904031526 26 162 0.0 0.0 0.00 1.63 1.63 92 1014.0
20260904031022 26 114 3.2 3.2 0.00 1.63 1.63 92 1014.0
20260904030518 26 114 8.0 9.7 0.00 1.63 1.63 91 1014.0
20260904030014 26 78 11.3 12.9 0.00 1.63 1.63 91 1014.0
20260904025509 26 162 6.4 6.4 0.00 1.63 1.63 90 1013.6
20260904025009 26 134 8.0 9.7 0.00 1.63 1.63 90 1013.6
20260904024504 26 186 8.0 9.7 0.00 1.63 1.63 90 1014.0
20260904024000 26 186 3.2 3.2 0.00 1.63 1.63 91 1013.6
20260904023456 26 198 3.2 3.2 0.00 1.63 1.63 92 1014.0
20260904022956 26 168 0.0 0.0 0.00 1.63 1.63 94 1014.0
20260904022452 26 174 4.8 4.8 0.00 1.63 1.63 96 1014.0
20260904021948 26 112 0.0 0.0 0.00 1.63 1.63 96 1013.6
20260904021444 26 112 0.0 0.0 0.00 1.63 1.63 96 1013.6
20260904020939 26 112 0.0 0.0 0.00 1.63 1.63 96 1014.0
20260904020434 26 112 0.0 0.0 0.00 1.63 1.63 95 1014.0
20260904015932 26 112 0.0 0.0 0.00 1.63 1.63 95 1014.0
20260904015428 26 112 0.0 0.0 0.00 1.63 1.63 95 1014.0
20260904014927 26 112 0.0 0.0 0.00 1.63 1.63 95 1014.0
20260904014422 26 112 0.0 0.0 0.00 1.63 1.63 94 1013.6
20260904013917 26 112 0.0 0.0 0.00 1.63 1.63 93 1014.0
20260904013413 26 112 0.0 0.0 0.00 1.63 1.63 93 1013.6
20260904012909 26 112 0.0 0.0 0.00 1.63 1.63 93 1013.6
20260904012408 26 112 0.0 0.0 0.00 1.63 1.63 92 1013.6
20260904011903 26 112 0.0 0.0 0.00 1.63 1.63 91 1013.6
20260904011358 26 112 0.0 0.0 0.00 1.63 1.63 91 1013.3
20260904010853 26 112 0.0 0.0 0.00 1.63 1.63 91 1013.6
20260904010350 26 112 0.0 0.0 0.00 1.63 1.63 92 1013.3
20260904005850 26 112 0.0 0.0 0.00 1.63 1.63 92 1013.3
20260904005346 26 110 0.0 0.0 0.00 1.63 1.63 92 1013.3
20260904004840 26 110 0.0 0.0 0.00 1.63 1.63 92 1013.3
20260904004337 26 139 0.0 0.0 0.00 1.63 1.63 93 1013.0
20260904003832 27 119 3.2 3.2 0.00 1.63 1.63 94 1013.0
20260904003328 26 114 3.2 3.2 0.00 1.63 1.63 94 1013.0
20260904002823 26 94 4.8 6.4 0.00 1.63 1.63 93 1013.0
20260904002319 26 138 4.8 4.8 0.00 1.63 1.63 93 1012.6
20260904001818 26 132 3.2 3.2 0.00 1.63 1.63 92 1012.6
20260904001314 26 198 3.2 3.2 0.00 1.63 1.63 93 1013.0
20260904000809 26 96 3.2 3.2 0.00 1.63 1.63 92 1013.0
20260904000310 26 132 6.4 6.4 0.00 1.63 1.63 93 1013.0
20260903235808 26 101 0.0 0.0 0.00 1.63 1.63 94 1013.0
20260903235305 26 96 0.0 0.0 0.00 1.63 1.63 94 1013.0
20260903234803 26 100 0.0 0.0 0.00 1.63 1.63 95 1013.0
20260903234301 26 85 0.0 0.0 0.00 1.63 1.63 95 1013.3
20260903233756 26 85 0.0 0.0 0.00 1.63 1.63 95 1013.0
20260903233252 26 85 0.0 0.0 0.00 1.63 1.63 95 1013.0
20260903232750 26 85 0.0 0.0 0.00 1.63 1.63 95 1013.0
20260903232247 26 85 0.0 0.0 0.00 1.63 1.63 95 1013.0
20260903231745 26 85 0.0 0.0 0.00 1.63 1.63 95 1013.0
20260903231241 26 89 0.0 0.0 0.00 1.63 1.63 96 1013.0
20260903230737 25 92 1.6 1.6 0.00 1.63 1.63 96 1013.0
20260903230236 25 106 0.0 0.0 0.00 1.63 1.63 96 1012.6
20260903225733 25 150 0.0 0.0 0.00 1.63 1.63 97 1013.0
20260903225229 25 194 0.0 0.0 0.00 1.63 1.63 97 1013.0
20260903224725 25 194 0.0 0.0 0.00 1.63 1.63 97 1013.0
20260903224221 25 194 0.0 0.0 0.00 1.63 1.63 97 1013.0
20260903223721 25 194 0.0 0.0 0.00 1.63 1.63 96 1013.0
20260903223220 25 194 3.2 3.2 0.00 1.63 1.63 96 1013.3
20260903222715 25 80 0.0 0.0 0.00 1.63 1.63 96 1013.0
20260903222214 25 66 4.8 4.8 0.00 1.63 1.63 96 1013.0
20260903221709 25 354 4.8 4.8 0.00 1.63 1.63 96 1013.3
20260903221208 24 325 1.6 1.6 0.00 1.63 1.63 96 1012.6
20260903220706 24 40 3.2 3.2 0.00 1.63 1.63 96 1013.0
20260903220201 24 66 0.0 0.0 0.00 1.63 1.63 96 1013.0
20260903215700 24 71 3.2 3.2 0.64 1.63 1.63 95 1012.3
20260903215155 23 86 4.8 6.4 0.64 1.63 1.63 95 1012.6
20260903214653 23 75 6.4 6.4 0.64 1.63 1.63 96 1012.6
20260903214149 23 162 0.0 0.0 0.58 1.57 1.57 96 1012.6
20260903213644 23 259 4.8 4.8 0.58 1.57 1.57 96 1012.6
20260903213140 23 216 4.8 6.4 0.58 1.57 1.57 96 1012.3
20260903212636 23 228 4.8 4.8 0.58 1.57 1.57 96 1012.0
20260903212131 23 204 3.2 3.2 0.58 1.57 1.57 96 1012.3
20260903211625 23 244 3.2 3.2 0.58 1.57 1.57 96 1012.0
20260903211123 24 232 0.0 0.0 0.58 1.57 1.57 96 1012.3
20260903210618 24 225 6.4 6.4 0.58 1.57 1.57 95 1012.3
20260903210114 24 232 11.3 11.3 0.15 1.14 1.14 94 1012.6
20260903205613 25 212 9.7 9.7 0.00 0.74 0.74 90 1012.6
20260903205112 25 222 9.7 11.3 0.00 0.74 0.74 88 1013.0
20260903204603 26 210 14.5 16.1 0.00 0.74 0.74 84 1013.0
20260903204058 27 210 20.9 22.5 0.00 0.74 0.74 83 1012.6
20260903203554 29 160 3.2 3.2 0.00 0.74 0.74 85 1012.3
20260903203053 29 150 0.0 0.0 0.00 0.74 0.74 84 1012.0
20260903202549 30 120 3.2 3.2 0.00 0.74 0.74 83 1012.3
20260903202044 30 118 4.8 6.4 0.00 0.74 0.74 83 1012.3
20260903201539 30 97 6.4 6.4 0.00 0.74 0.74 84 1012.3
20260903201038 30 102 6.4 6.4 0.00 0.74 0.74 82 1012.0
20260903200533 30 66 8.0 8.0 0.00 0.74 0.74 82 1012.3
20260903200028 30 52 8.0 9.7 0.00 0.74 0.74 83 1012.3
20260903195524 29 156 8.0 9.7 0.00 0.74 0.74 84 1012.3
20260903195020 29 80 11.3 11.3 0.00 0.74 0.74 84 1012.0
20260903194515 29 42 11.3 12.9 0.00 0.74 0.74 84 1012.0
20260903194010 29 102 11.3 12.9 0.00 0.74 0.74 85 1011.6
20260903193507 29 60 9.7 11.3 0.00 0.74 0.74 85 1012.0
20260903193001 29 84 9.7 9.7 0.00 0.74 0.74 85 1012.3
20260903192458 29 91 9.7 9.7 0.00 0.74 0.74 85 1013.0
20260903191953 29 152 11.3 11.3 0.00 0.74 0.74 85 1012.3
20260903191449 29 101 8.0 8.0 0.00 0.74 0.74 85 1012.3
20260903190948 29 114 6.4 8.0 0.00 0.74 0.74 85 1012.3
20260903190443 29 99 3.2 3.2 0.00 0.74 0.74 86 1012.6
20260903185942 29 132 6.4 6.4 0.00 0.74 0.74 85 1012.6
20260903185439 29 99 11.3 11.3 0.00 0.74 0.74 84 1012.6
20260903184938 29 67 9.7 9.7 0.00 0.74 0.74 82 1013.0
20260903184436 30 134 6.4 6.4 0.00 0.74 0.74 83 1013.0
20260903183935 29 96 3.2 3.2 0.00 0.74 0.74 83 1013.0
20260903183430 30 132 4.8 6.4 0.00 0.74 0.74 82 1013.0
20260903182929 30 144 6.4 6.4 0.00 0.74 0.74 82 1012.6
20260903182428 29 79 6.4 6.4 0.00 0.74 0.74 80 1012.3
20260903181924 29 114 8.0 9.7 0.00 0.74 0.74 79 1012.6
20260903181419 29 90 4.8 6.4 0.00 0.74 0.74 80 1012.6
20260903180918 30 102 4.8 6.4 0.00 0.74 0.74 80 1012.6
20260903180413 29 88 6.4 6.4 0.00 0.74 0.74 80 1013.0
20260903175913 29 72 6.4 6.4 0.00 0.74 0.74 81 1013.0
20260903175413 29 108 6.4 6.4 0.00 0.74 0.74 80 1013.0
20260903174907 29 74 4.8 4.8 0.00 0.74 0.74 82 1013.3
20260903174403 29 105 8.0 8.0 0.00 0.74 0.74 81 1013.0
20260903173902 29 64 4.8 6.4 0.00 0.74 0.74 83 1013.3
20260903173357 29 111 4.8 6.4 0.00 0.74 0.74 84 1013.6
20260903172853 29 96 8.0 8.0 0.00 0.74 0.74 83 1013.6
20260903172347 28 126 0.0 0.0 0.00 0.74 0.74 81 1013.6
20260903171843 28 49 4.8 6.4 0.00 0.74 0.74 82 1013.6
20260903171344 27 89 0.0 0.0 0.00 0.74 0.74 82 1013.3
20260903170843 27 106 4.8 4.8 0.00 0.74 0.74 85 1013.6
20260903170338 26 66 4.8 4.8 0.00 0.74 0.74 89 1013.6
20260903165836 27 162 3.2 3.2 0.08 0.74 0.74 92 1014.0
20260903165336 27 211 4.8 6.4 0.08 0.74 0.74 93 1014.0
20260903164831 27 138 3.2 3.2 0.08 0.74 0.74 94 1014.0
20260903164327 27 69 1.6 1.6 0.08 0.74 0.74 94 1014.0
20260903163826 27 68 3.2 3.2 0.08 0.74 0.74 94 1014.0
20260903163323 28 95 11.3 11.3 0.03 0.71 0.71 92 1014.0
20260903162818 28 102 4.8 6.4 0.00 0.66 0.66 91 1014.3
20260903162315 29 84 6.4 6.4 0.00 0.66 0.66 88 1014.0
20260903161810 29 90 6.4 6.4 0.00 0.66 0.66 84 1014.0
20260903161306 30 66 8.0 9.7 0.00 0.66 0.66 83 1014.3
20260903160801 29 90 9.7 9.7 0.00 0.66 0.66 84 1014.3
20260903160300 28 106 4.8 4.8 0.00 0.66 0.66 85 1014.3
20260903155758 28 108 3.2 3.2 0.00 0.66 0.66 86 1014.0